This is the latest recevied weather packets stored in our database for station/object KY4OP-13. If no packets are shown the sender has not sent any weather packets the latest 10 day(s).
| Time | Temp. | Humidity | Pressure | Rain* | Wind** | Luminosity | Snow |
|---|---|---|---|---|---|---|---|
| 1777978011 | 11.67° C | 83% | 1014.8 hPa | 0 mm | - | - | - |
| 1777977709 | 11.11° C | 83% | 1014.7 hPa | 0 mm | - | - | - |
| 1777977404 | 11.11° C | 83% | 1014.6 hPa | 0 mm | - | - | - |
| 1777977102 | 11.11° C | 83% | 1014.4 hPa | 0 mm | - | - | - |
| 1777976800 | 11.67° C | 83% | 1014.7 hPa | 0 mm | - | - | - |
| 1777976497 | 11.67° C | 82% | 1014.7 hPa | 0 mm | - | - | - |
| 1777976196 | 11.67° C | 81% | 1014.4 hPa | 0 mm | - | - | - |
| 1777975892 | 12.22° C | 80% | 1014.4 hPa | 0 mm | - | - | - |
| 1777975588 | 12.22° C | 79% | 1014.4 hPa | 0 mm | - | - | - |
| 1777975285 | 12.78° C | 77% | 1014.4 hPa | 0 mm | - | - | - |
| 1777974981 | 12.78° C | 77% | 1014.4 hPa | 0 mm | - | - | - |
| 1777974678 | 12.78° C | 77% | 1014.2 hPa | 0 mm | - | - | - |
| 1777974375 | 12.78° C | 77% | 1014.3 hPa | 0 mm | - | - | - |
| 1777974071 | 12.78° C | 78% | 1014.3 hPa | 0 mm | - | - | - |
| 1777973767 | 12.22° C | 79% | 1014.5 hPa | 0 mm | - | - | - |
| 1777973464 | 12.22° C | 80% | 1014.3 hPa | 0 mm | - | - | - |
| 1777973162 | 12.78° C | 79% | 1014.4 hPa | 0 mm | - | - | - |
| 1777972861 | 12.78° C | 79% | 1014.5 hPa | 0 mm | - | - | - |
| 1777972557 | 12.22° C | 80% | 1014.4 hPa | 0 mm | - | - | - |
| 1777972255 | 11.67° C | 82% | 1014.6 hPa | 0 mm | - | - | - |
| 1777971953 | 11.67° C | 84% | 1014.5 hPa | 0 mm | - | - | - |
| 1777971650 | 11.67° C | 84% | 1014.3 hPa | 0 mm | - | - | - |
| 1777971348 | 11.67° C | 84% | 1014.3 hPa | 0 mm | - | - | - |
| 1777971046 | 12.22° C | 83% | 1014.1 hPa | 0 mm | - | - | - |
| 1777970744 | 12.22° C | 83% | 1014.3 hPa | 0 mm | - | - | - |
* Rain latest hour (hover to see other rain measurements)
** Current wind speed in m/s (hover to see current wind gust speed)